Regional Weather Roundup
Issued by NWS New Orleans/Baton Rouge, LA

Home | Current Version | Previous Version | Text Only | Print | Product List | Glossary On
Versions: 1 2 3 4 5 6 7 8 9 10 11 12 13 14 15 16 17 18 19 20 21 22 23 24 25 26 27
000
ASUS44 KLIX 111312
RWRLIX
NEW ORLEANS REGIONAL WEATHER ROUNDUP
NATIONAL WEATHER SERVICE NEW ORLEANS LA
700 AM CST MON DEC 11 2017

NOTE: "FAIR" INDICATES FEW OR NO CLOUDS BELOW 12,000 FEET WITH NO
      SIGNIFICANT WEATHER AND/OR OBSTRUCTIONS TO VISIBILITY.
      SKY/WX - SKY CONDITION AND SIGNIFICANT WEATHER.
      TMP - AIR TEMPERATURE.     DP    - DEWPOINT TEMPERATURE.
      RH  - RELATIVE HUMIDITY.   PRES  - PRESSURE.
      HI  - HEAT INDEX.          WCI   - WIND CHILL INDEX.

*  THESE STATIONS ARE NOT NWS OR FAA STATIONS AND ARE NOT UNDER
   NWS QUALITY CONTROL.

LAZ038-040-048-061>063-065>067-069-111400-
SOUTHEAST LOUISIANA

CITY           SKY/WX    TMP DP  RH WIND       PRES   REMARKS
N.O. INTL ARPT PTCLDY    36  36 100 CALM      30.32R
N.O. LAKEFRONT CLEAR     46  41  82 SW6       30.32R
N.O. DOWNTOWN*   N/A     46  38  73 S5        30.33R
RESERVE*         N/A     37  35  92 CALM      30.32S FOG
SLIDELL        CLEAR     32  29  88 CALM      30.31R
BATON ROUGE    CLEAR     35  34  96 CALM      30.30S
BOOTHVILLE     CLEAR     45  39  79 NW3       30.33S
BELLE CHASSE   PTCLDY    32  32 100 SW3       30.32R
BOGALUSA*      NOT AVBL
GALLIANO*      SUNNY     32  30  92 CALM      30.34R FOG
NEW ROADS*       N/A     32  31  98 CALM      30.31S
GONZALES*        N/A     35  33  95 CALM      30.31S
HAMMOND*       CLEAR     32  32 100 CALM      30.31S
HOUMA*         CLEAR     34  34 100 CALM      30.33R
PORT FOURCHON* NOT AVBL

$$

MSZ070-080>082-111400-
SOUTHERN MISSISSIPPI

CITY           SKY/WX    TMP DP  RH WIND       PRES   REMARKS
MCCOMB         CLEAR     32  29  88 CALM      30.28R
GULFPORT       CLEAR     33  32  96 CALM      30.31R FOG
BILOXI         CLEAR     35  34  94 W5        30.30R WCI  31
PASCAGOULA     CLEAR     30  27  88 CALM      30.31S
STENNIS ARPT*  CLEAR     30  28  93 CALM      30.32

$$

COASTAL OBSERVATIONS
LAKE AND NEARSHORE STATIONS

STATION/POSITION TIME  TEMP    WIND        PRES    WAVE
                       AIR SEA DIR/SP/G            HT/PER
                 (UTC) (F)     (DEG/KT/KT) (MB)    (FT/S)
PASCAGOULA       1236   43     270/  5/  6 1025.7
WAVELAND YACHT   1236   38 48   CALM  /  2 1026.1
GRAND ISLE       1236   47 53  260/  3/  4 1026.8
SOUTHWEST PASS   1236   52 56  360/  9/ 10 1027.2
NEW CANAL        1236   44 55  230/  2/  3 1026.2
SHELL BEACH      1236   44 53  220/  4/  5 1026.5

OFFSHORE STATIONS

STATION/POSITION TIME  TEMP    WIND        PRES    WAVE
                       AIR SEA DIR/SP/G            HT/PER
                 (UTC) (F)     (DEG/KT/KT) (MB)    (FT/S)
64 S DAUPHIN ISL 1250   60 74  310/ 10/ 14 1026.9    2/ 4

$$





USA.gov is the U.S. government's official web portal to all federal, state and local government web resources and services.